Regional Weather Roundup
Issued by NWS

Home | Current Version | Previous Version | Graphics & Text | Print | Product List | Glossary On
Versions: 1 2 3 4 5 6 7 8 9 10 11 12 13 14 15 16 17 18 19 20 21 22 23 24 25 26 27 28 29 30 31 32 33 34 35 36 37 38 39 40 41 42 43 44 45 46 47 48 49 50
000
ASUS43 KLMK 231510
RWRKY
KENTUCKY REGIONAL WEATHER ROUNDUP
NATIONAL WEATHER SERVICE LOUISVILLE KY
1000 AM EST TUE JAN 23 2018

NOTE "FAIR" INDICATES FEW OR NO CLOUDS BELOW 12,000 FEET
WITH NO SIGNIFICANT WEATHER AND/OR OBSTRUCTIONS TO VISIBILITY.

KYZ001>023-026-027-061>063-070>075-231600-
WESTERN AND SOUTH CENTRAL KENTUCKY

CITY           SKY/WX    TMP DP  RH WIND       PRES   REMARKS
PADUCAH        CLOUDY    39  29  67 W12       29.98R WCI  32
HENDERSON      CLOUDY    38  32  79 W13G20    29.95R WCI  30
OWENSBORO      CLOUDY    39  31  72 W9G18     29.95R WCI  33
HOPKINSVILLE   CLOUDY    41  29  62 W17G26    29.96R
BOWLING GREEN  FAIR      43  30  60 W15G25    29.96R
GLASGOW        CLOUDY    43  29  58 W16G24    29.94R
$$

KYZ024-025-028>034-038-045-046-053-231600-
NORTH CENTRAL KENTUCKY

CITY           SKY/WX    TMP DP  RH WIND       PRES   REMARKS
LOUISVILLE/SDF CLOUDY    42  30  62 W17G24    29.88R
LOUISVILLE/LOU CLOUDY    42  30  62 W14G25    29.89R
FORT KNOX      NOT AVBL
$$

KYZ035>037-039>044-047>052-055>060-089>105-231600-
NORTHEAST KENTUCKY

CITY           SKY/WX    TMP DP  RH WIND       PRES   REMARKS
LEXINGTON      CLOUDY    43  28  55 W21G33    29.86R
COVINGTON      CLOUDY    38  33  82 W16G23    29.80R WCI  29
FRANKFORT      CLOUDY    42  28  57 W10G23    29.85R
$$

KYZ054-064>069-076>088-106>120-231600-
SOUTHEAST KENTUCKY

CITY           SKY/WX    TMP DP  RH WIND       PRES   REMARKS
JACKSON        PTSUNNY   44  31  60 MISG      29.84R
LONDON         CLOUDY    44  29  55 SW9G21    29.88R
SOMERSET       CLOUDY    43  28  56 W18G24    29.93R
MIDDLESBORO    CLOUDY    44  29  56 CALM      29.93R
MONTICELLO     CLOUDY    45  30  55 W18G25    29.94R
$$





USA.gov is the U.S. government's official web portal to all federal, state and local government web resources and services.